WJA116 CYVR-CYYC

Flight info

Callsign WJA116
Flight time 1h 9m
Altitude 37000
Route DCT DAPED DCT PETLI DCT MENBO Q983 NORET IGVEP7
Aircraft B38M/M-SDE1FGHILORVWXY/HB1

Departure

Time 2026-05-04 00:18
Airport Vancouver International Airport (CYVR)

Arrival

Time 2026-05-04 01:27
Airport Calgary International Airport (CYYC)
Time Latitude Longitude Altitude Speed Heading
2026-05-03 23:54 49.19176 -123.18041 26 ft 0 kts
2026-05-04 00:08 49.19169 -123.18043 28 ft 4 kts
2026-05-04 00:08 49.19143 -123.18050 27 ft 4 kts
2026-05-04 00:08 49.19122 -123.18055 26 ft 4 kts 15°
2026-05-04 00:08 49.19103 -123.18071 27 ft 4 kts 73°
2026-05-04 00:09 49.19103 -123.18107 26 ft 4 kts 99°
2026-05-04 00:09 49.19105 -123.18121 25 ft 1 kts 99°
2026-05-04 00:12 49.19105 -123.18120 25 ft 1 kts 100°
2026-05-04 00:12 49.19092 -123.18070 25 ft 8 kts 127°
2026-05-04 00:12 49.19043 -123.18047 25 ft 8 kts 185°
2026-05-04 00:12 49.18988 -123.18060 26 ft 8 kts 189°
2026-05-04 00:13 49.18934 -123.18070 25 ft 8 kts 170°
2026-05-04 00:13 49.18904 -123.18004 24 ft 8 kts 103°
2026-05-04 00:13 49.18893 -123.17903 24 ft 11 kts 99°
2026-05-04 00:13 49.18881 -123.17799 24 ft 10 kts 100°
2026-05-04 00:14 49.18867 -123.17676 24 ft 17 kts 99°
2026-05-04 00:14 49.18840 -123.17440 24 ft 28 kts 99°
2026-05-04 00:14 49.18820 -123.17264 27 ft 10 kts 100°
2026-05-04 00:14 49.18808 -123.17159 24 ft 10 kts 100°
2026-05-04 00:15 49.18792 -123.17017 26 ft 19 kts 100°
2026-05-04 00:15 49.18768 -123.16812 24 ft 19 kts 99°
2026-05-04 00:15 49.18745 -123.16614 26 ft 18 kts 99°
2026-05-04 00:15 49.18725 -123.16434 24 ft 17 kts 100°
2026-05-04 00:16 49.18690 -123.16284 27 ft 14 kts 130°
2026-05-04 00:16 49.18637 -123.16166 25 ft 14 kts 101°
2026-05-04 00:16 49.18616 -123.16066 26 ft 8 kts 131°
2026-05-04 00:16 49.18594 -123.16048 25 ft 3 kts 162°
2026-05-04 00:17 49.18564 -123.16042 26 ft 8 kts 182°
2026-05-04 00:17 49.18495 -123.16072 25 ft 10 kts 221°
2026-05-04 00:17 49.18482 -123.16171 24 ft 10 kts 280°
2026-05-04 00:17 49.18505 -123.16364 27 ft 43 kts 280°
2026-05-04 00:18 49.18595 -123.17160 26 ft 107 kts 280°
2026-05-04 00:18 49.18760 -123.18574 51 ft 157 kts 281°
2026-05-04 00:18 49.18946 -123.20280 640 ft 160 kts 278°
2026-05-04 00:18 49.19123 -123.22022 1215 ft 176 kts 280°
2026-05-04 00:19 49.19315 -123.23859 1988 ft 175 kts 279°
2026-05-04 00:19 49.19509 -123.25735 2569 ft 185 kts 281°
2026-05-04 00:19 49.19730 -123.27806 2855 ft 205 kts 279°
2026-05-04 00:19 49.19952 -123.30053 3080 ft 224 kts 279°
2026-05-04 00:20 49.20187 -123.32487 3381 ft 237 kts 278°
2026-05-04 00:20 49.20416 -123.35016 3732 ft 254 kts 277°
2026-05-04 00:20 49.20418 -123.37823 4104 ft 270 kts 260°
2026-05-04 00:20 49.19680 -123.40482 4828 ft 273 kts 233°
2026-05-04 00:21 49.18261 -123.42419 5478 ft 283 kts 209°
2026-05-04 00:21 49.16387 -123.43244 6229 ft 282 kts 181°
2026-05-04 00:21 49.14419 -123.42816 6695 ft 289 kts 152°
2026-05-04 00:21 49.12818 -123.41042 7446 ft 286 kts 129°
2026-05-04 00:22 49.11600 -123.38653 8178 ft 287 kts 125°
2026-05-04 00:22 49.10436 -123.36194 8840 ft 293 kts 124°
2026-05-04 00:22 49.09403 -123.33397 9047 ft 307 kts 102°
2026-05-04 00:22 49.09375 -123.30237 10040 ft 294 kts 73°
2026-05-04 00:23 49.10067 -123.27301 10730 ft 299 kts 69°
2026-05-04 00:23 49.10740 -123.24190 10901 ft 321 kts 73°
2026-05-04 00:23 49.11301 -123.20802 11216 ft 336 kts 77°
2026-05-04 00:23 49.11730 -123.17213 11782 ft 342 kts 80°
2026-05-04 00:24 49.12033 -123.13644 12478 ft 345 kts 82°
2026-05-04 00:24 49.12258 -123.09961 13058 ft 352 kts 84°
2026-05-04 00:24 49.12428 -123.06151 13725 ft 357 kts 85°
2026-05-04 00:24 49.12556 -123.02406 14346 ft 360 kts 85°
2026-05-04 00:25 49.12664 -122.98567 14982 ft 364 kts 85°
2026-05-04 00:25 49.12759 -122.94688 15625 ft 367 kts 86°
2026-05-04 00:25 49.12848 -122.90776 16285 ft 371 kts 86°
2026-05-04 00:25 49.12932 -122.86831 16924 ft 374 kts 86°
2026-05-04 00:26 49.13014 -122.82849 17543 ft 378 kts 86°
2026-05-04 00:26 49.13096 -122.78810 18153 ft 382 kts 86°
2026-05-04 00:26 49.13177 -122.74725 18702 ft 386 kts 86°
2026-05-04 00:26 49.13258 -122.70618 19259 ft 389 kts 86°
2026-05-04 00:27 49.13337 -122.66483 19791 ft 392 kts 86°
2026-05-04 00:27 49.13416 -122.62309 20339 ft 395 kts 86°
2026-05-04 00:27 49.13495 -122.58083 20811 ft 400 kts 86°
2026-05-04 00:27 49.13572 -122.53821 21320 ft 404 kts 86°
2026-05-04 00:28 49.13648 -122.49520 21848 ft 406 kts 86°
2026-05-04 00:28 49.13724 -122.45187 22373 ft 410 kts 85°
2026-05-04 00:28 49.13799 -122.40822 22857 ft 413 kts 85°
2026-05-04 00:28 49.13872 -122.36416 23331 ft 417 kts 85°
2026-05-04 00:29 49.13945 -122.31977 23766 ft 420 kts 85°
2026-05-04 00:29 49.14014 -122.27569 24209 ft 421 kts 85°
2026-05-04 00:29 49.14084 -122.23088 24649 ft 423 kts 85°
2026-05-04 00:29 49.14151 -122.18590 25078 ft 425 kts 85°
2026-05-04 00:30 49.14218 -122.14068 25482 ft 427 kts 85°
2026-05-04 00:30 49.14283 -122.09523 25894 ft 429 kts 85°
2026-05-04 00:30 49.14347 -122.04958 26298 ft 431 kts 85°
2026-05-04 00:30 49.14409 -122.00374 26693 ft 433 kts 85°
2026-05-04 00:31 49.14470 -121.95771 27172 ft 433 kts 86°
2026-05-04 00:31 49.14528 -121.91184 27619 ft 433 kts 86°
2026-05-04 00:31 49.14585 -121.86575 27963 ft 436 kts 86°
2026-05-04 00:31 49.14641 -121.81927 28290 ft 439 kts 86°
2026-05-04 00:32 49.14696 -121.77263 28660 ft 441 kts 86°
2026-05-04 00:32 49.14749 -121.72568 29028 ft 443 kts 85°
2026-05-04 00:32 49.14808 -121.67873 29450 ft 441 kts 84°
2026-05-04 00:32 49.15071 -121.63205 29696 ft 443 kts 79°
2026-05-04 00:33 49.15484 -121.58531 29999 ft 445 kts 78°
2026-05-04 00:33 49.16412 -121.49098 30463 ft 450 kts 78°
2026-05-04 00:33 49.16865 -121.44390 30950 ft 446 kts 78°
2026-05-04 00:34 49.17299 -121.39735 31481 ft 441 kts 78°
2026-05-04 00:34 49.17717 -121.35122 32008 ft 436 kts 78°
2026-05-04 00:34 49.18124 -121.30547 32474 ft 433 kts 77°
2026-05-04 00:34 49.18526 -121.25991 32774 ft 433 kts 77°
2026-05-04 00:35 49.18922 -121.21447 33302 ft 428 kts 77°
2026-05-04 00:35 49.19307 -121.16980 33859 ft 423 kts 77°
2026-05-04 00:35 49.19692 -121.12528 34138 ft 423 kts 77°
2026-05-04 00:36 49.20335 -121.05082 34433 ft 426 kts 77°
2026-05-04 00:36 49.20719 -121.00597 34768 ft 424 kts 77°
2026-05-04 00:36 49.21099 -120.96129 35049 ft 425 kts 77°
2026-05-04 00:36 49.21477 -120.91652 35361 ft 423 kts 77°
2026-05-04 00:37 49.21852 -120.87196 35647 ft 422 kts 77°
2026-05-04 00:37 49.22220 -120.82770 35990 ft 419 kts 76°
2026-05-04 00:37 49.22588 -120.78354 36237 ft 419 kts 76°
2026-05-04 00:37 49.22958 -120.73919 36432 ft 420 kts 76°
2026-05-04 00:38 49.23326 -120.69490 36644 ft 420 kts 76°
2026-05-04 00:38 49.23691 -120.65057 36826 ft 420 kts 76°
2026-05-04 00:38 49.24056 -120.60619 36940 ft 422 kts 76°
2026-05-04 00:39 49.24787 -120.51649 36928 ft 426 kts 77°
2026-05-04 00:39 49.25505 -120.42712 36952 ft 420 kts 77°
2026-05-04 00:40 49.26210 -120.33829 36945 ft 420 kts 77°
2026-05-04 00:40 49.26911 -120.24951 36944 ft 422 kts 77°
2026-05-04 00:41 49.27611 -120.16007 36946 ft 424 kts 77°
2026-05-04 00:41 49.28305 -120.07034 36930 ft 425 kts 77°
2026-05-04 00:42 49.28992 -119.98040 36925 ft 426 kts 77°
2026-05-04 00:42 49.29680 -119.89016 36892 ft 427 kts 77°
2026-05-04 00:43 49.30353 -119.79970 36893 ft 428 kts 77°
2026-05-04 00:43 49.31024 -119.70921 36920 ft 428 kts 78°
2026-05-04 00:44 49.31928 -119.61926 36878 ft 423 kts 68°
2026-05-04 00:44 49.34204 -119.53767 36888 ft 415 kts 58°
2026-05-04 00:45 49.36840 -119.45911 36882 ft 414 kts 58°
2026-05-04 00:45 49.39466 -119.38028 36890 ft 415 kts 58°
2026-05-04 00:46 49.42075 -119.30094 36892 ft 417 kts 58°
2026-05-04 00:46 49.44679 -119.22112 36895 ft 419 kts 58°
2026-05-04 00:47 49.47282 -119.14098 36891 ft 420 kts 58°
2026-05-04 00:47 49.49879 -119.06057 36901 ft 419 kts 58°
2026-05-04 00:48 49.52457 -118.98069 36908 ft 418 kts 58°
2026-05-04 00:48 49.55037 -118.90056 36917 ft 418 kts 58°
2026-05-04 00:49 49.57615 -118.82018 36915 ft 419 kts 58°
2026-05-04 00:49 49.60191 -118.73957 36914 ft 419 kts 58°
2026-05-04 00:50 49.62758 -118.65898 36935 ft 419 kts 58°
2026-05-04 00:50 49.65323 -118.57824 36951 ft 419 kts 58°
2026-05-04 00:51 49.67887 -118.49723 36947 ft 420 kts 58°
2026-05-04 00:51 49.70448 -118.41603 36934 ft 421 kts 58°
2026-05-04 00:52 49.73009 -118.33460 36918 ft 421 kts 58°
2026-05-04 00:52 49.75565 -118.25304 36927 ft 422 kts 58°
2026-05-04 00:53 49.78117 -118.17133 36933 ft 422 kts 59°
2026-05-04 00:53 49.80668 -118.08939 36934 ft 422 kts 59°
2026-05-04 00:54 49.83208 -118.00754 36944 ft 423 kts 58°
2026-05-04 00:54 49.85761 -117.92500 36918 ft 425 kts 59°
2026-05-04 00:55 49.88316 -117.84213 36929 ft 426 kts 59°
2026-05-04 00:55 49.90871 -117.75897 36956 ft 428 kts 59°
2026-05-04 00:56 49.93413 -117.67584 36933 ft 429 kts 59°
2026-05-04 00:56 49.95983 -117.59155 36907 ft 430 kts 59°
2026-05-04 00:57 49.98530 -117.50781 36918 ft 429 kts 59°
2026-05-04 00:57 50.01080 -117.42385 36927 ft 428 kts 59°
2026-05-04 00:58 50.03603 -117.34031 36912 ft 426 kts 59°
2026-05-04 00:58 50.06099 -117.25740 36934 ft 424 kts 59°
2026-05-04 00:58 50.07347 -117.21572 36698 ft 425 kts 59°
2026-05-04 00:59 50.08583 -117.17440 36488 ft 418 kts 59°
2026-05-04 00:59 50.09807 -117.13338 36035 ft 415 kts 59°
2026-05-04 00:59 50.11016 -117.09285 35717 ft 411 kts 59°
2026-05-04 00:59 50.12214 -117.05263 35340 ft 408 kts 59°
2026-05-04 01:00 50.13401 -117.01278 34916 ft 404 kts 60°
2026-05-04 01:00 50.14570 -116.97323 34597 ft 400 kts 59°
2026-05-04 01:00 50.15743 -116.93397 34196 ft 398 kts 59°
2026-05-04 01:00 50.16904 -116.89489 33845 ft 396 kts 59°
2026-05-04 01:01 50.18056 -116.85597 33419 ft 395 kts 59°
2026-05-04 01:01 50.19201 -116.81720 33047 ft 393 kts 59°
2026-05-04 01:01 50.20339 -116.77859 32668 ft 391 kts 59°
2026-05-04 01:01 50.21469 -116.74013 32302 ft 389 kts 59°
2026-05-04 01:02 50.22579 -116.70230 31958 ft 386 kts 59°
2026-05-04 01:02 50.23708 -116.66383 31573 ft 384 kts 59°
2026-05-04 01:02 50.24805 -116.62645 31291 ft 383 kts 59°
2026-05-04 01:02 50.25910 -116.58867 30910 ft 382 kts 59°
2026-05-04 01:03 50.27013 -116.55088 30572 ft 381 kts 59°
2026-05-04 01:03 50.28123 -116.51281 30194 ft 381 kts 59°
2026-05-04 01:03 50.29205 -116.47566 29862 ft 380 kts 59°
2026-05-04 01:03 50.30298 -116.43806 29446 ft 379 kts 59°
2026-05-04 01:04 50.31385 -116.40057 29070 ft 377 kts 59°
2026-05-04 01:04 50.32465 -116.36328 28695 ft 375 kts 59°
2026-05-04 01:04 50.33537 -116.32616 28325 ft 373 kts 59°
2026-05-04 01:04 50.34604 -116.28927 27944 ft 372 kts 59°
2026-05-04 01:05 50.35668 -116.25250 27635 ft 370 kts 59°
2026-05-04 01:05 50.36724 -116.21580 27240 ft 369 kts 59°
2026-05-04 01:05 50.37777 -116.17916 26869 ft 367 kts 59°
2026-05-04 01:05 50.38824 -116.14258 26487 ft 366 kts 60°
2026-05-04 01:06 50.39766 -116.10526 25891 ft 372 kts 64°
2026-05-04 01:06 50.40625 -116.06710 25368 ft 377 kts 65°
2026-05-04 01:06 50.41464 -116.02814 24964 ft 378 kts 65°
2026-05-04 01:06 50.42298 -115.98929 24604 ft 376 kts 65°
2026-05-04 01:07 50.43135 -115.95057 24259 ft 375 kts 65°
2026-05-04 01:07 50.43979 -115.91187 23908 ft 374 kts 65°
2026-05-04 01:07 50.44823 -115.87338 23550 ft 373 kts 65°
2026-05-04 01:07 50.45669 -115.83488 23182 ft 372 kts 65°
2026-05-04 01:08 50.46511 -115.79647 22824 ft 372 kts 65°
2026-05-04 01:08 50.47357 -115.75825 22437 ft 371 kts 65°
2026-05-04 01:08 50.48192 -115.72007 22090 ft 369 kts 65°
2026-05-04 01:08 50.49022 -115.68207 21731 ft 367 kts 65°
2026-05-04 01:09 50.49844 -115.64434 21401 ft 364 kts 66°
2026-05-04 01:09 50.50660 -115.60686 21077 ft 362 kts 66°
2026-05-04 01:09 50.51472 -115.56956 20749 ft 360 kts 66°
2026-05-04 01:09 50.52286 -115.53215 20422 ft 358 kts 66°
2026-05-04 01:10 50.53089 -115.49516 20092 ft 357 kts 66°
2026-05-04 01:10 50.53887 -115.45829 19761 ft 356 kts 66°
2026-05-04 01:10 50.54670 -115.42191 19490 ft 353 kts 65°
2026-05-04 01:10 50.55455 -115.38535 19151 ft 351 kts 65°
2026-05-04 01:11 50.56236 -115.34887 18806 ft 349 kts 65°
2026-05-04 01:11 50.57003 -115.31296 18520 ft 344 kts 66°
2026-05-04 01:11 50.57756 -115.27736 18158 ft 343 kts 65°
2026-05-04 01:11 50.58500 -115.24249 17829 ft 337 kts 66°
2026-05-04 01:12 50.59233 -115.20776 17524 ft 331 kts 66°
2026-05-04 01:12 50.59949 -115.17368 17316 ft 326 kts 66°
2026-05-04 01:12 50.60681 -115.13976 16965 ft 327 kts 66°
2026-05-04 01:12 50.61403 -115.10587 16636 ft 326 kts 66°
2026-05-04 01:13 50.62116 -115.07209 16334 ft 324 kts 67°
2026-05-04 01:13 50.62826 -115.03845 16036 ft 323 kts 67°
2026-05-04 01:13 50.63535 -115.00492 15721 ft 322 kts 67°
2026-05-04 01:13 50.64244 -114.97149 15405 ft 323 kts 67°
2026-05-04 01:14 50.64958 -114.93785 15080 ft 323 kts 68°
2026-05-04 01:14 50.65660 -114.90430 14760 ft 322 kts 68°
2026-05-04 01:14 50.66364 -114.87076 14424 ft 321 kts 68°
2026-05-04 01:14 50.67053 -114.83755 14180 ft 318 kts 68°
2026-05-04 01:15 50.67747 -114.80434 13876 ft 319 kts 69°
2026-05-04 01:15 50.68441 -114.77115 13546 ft 318 kts 69°
2026-05-04 01:15 50.69124 -114.73828 13349 ft 313 kts 70°
2026-05-04 01:15 50.69793 -114.70594 13188 ft 307 kts 69°
2026-05-04 01:16 50.70446 -114.67437 13021 ft 299 kts 67°
2026-05-04 01:16 50.71414 -114.64674 12836 ft 285 kts 43°
2026-05-04 01:16 50.72782 -114.62468 12634 ft 280 kts 41°
2026-05-04 01:16 50.74151 -114.60275 12365 ft 280 kts 41°
2026-05-04 01:17 50.75502 -114.58086 12142 ft 278 kts 40°
2026-05-04 01:17 50.76848 -114.55901 11869 ft 277 kts 40°
2026-05-04 01:17 50.78183 -114.53726 11608 ft 278 kts 40°
2026-05-04 01:17 50.79535 -114.51519 11346 ft 280 kts 40°
2026-05-04 01:18 50.80884 -114.49312 11086 ft 278 kts 40°
2026-05-04 01:18 50.82260 -114.47180 10814 ft 276 kts 38°
2026-05-04 01:18 50.83645 -114.45093 10561 ft 274 kts 38°
2026-05-04 01:18 50.85016 -114.43028 10297 ft 273 kts 37°
2026-05-04 01:19 50.86383 -114.40967 10059 ft 271 kts 38°
2026-05-04 01:19 50.87742 -114.38900 9792 ft 269 kts 38°
2026-05-04 01:19 50.89089 -114.36848 9508 ft 268 kts 38°
2026-05-04 01:19 50.90427 -114.34806 9244 ft 266 kts 38°
2026-05-04 01:20 50.91701 -114.32693 8961 ft 269 kts 51°
2026-05-04 01:20 50.92494 -114.29959 8655 ft 274 kts 64°
2026-05-04 01:20 50.93164 -114.27122 8331 ft 275 kts 63°
2026-05-04 01:20 50.93836 -114.24299 8012 ft 275 kts 64°
2026-05-04 01:21 50.94510 -114.21491 7681 ft 276 kts 63°
2026-05-04 01:21 50.95195 -114.18653 7348 ft 273 kts 63°
2026-05-04 01:21 50.95868 -114.15877 7003 ft 267 kts 63°
2026-05-04 01:21 50.96528 -114.13160 6712 ft 261 kts 63°
2026-05-04 01:22 50.97174 -114.10500 6387 ft 256 kts 63°
2026-05-04 01:22 50.97808 -114.07889 6085 ft 250 kts 63°
2026-05-04 01:22 50.98469 -114.05446 5787 ft 229 kts 53°
2026-05-04 01:22 50.99432 -114.03672 5533 ft 199 kts 32°
2026-05-04 01:23 51.00553 -114.02686 5348 ft 173 kts 19°
2026-05-04 01:23 51.01647 -114.02275 5143 ft 152 kts
2026-05-04 01:23 51.02659 -114.02163 4965 ft 141 kts
2026-05-04 01:23 51.03623 -114.02144 4782 ft 138 kts 359°
2026-05-04 01:24 51.04555 -114.02143 4617 ft 132 kts 360°
2026-05-04 01:24 51.05164 -114.02144 4475 ft 132 kts
2026-05-04 01:24 51.06089 -114.02150 4354 ft 134 kts
2026-05-04 01:24 51.06814 -114.02169 4164 ft 134 kts
2026-05-04 01:25 51.07748 -114.02163 4027 ft 136 kts
2026-05-04 01:25 51.08679 -114.02178 3833 ft 139 kts
2026-05-04 01:25 51.09645 -114.02151 3634 ft 142 kts
2026-05-04 01:25 51.10518 -114.02154 3561 ft 132 kts
2026-05-04 01:26 51.10996 -114.02106 3560 ft 107 kts
2026-05-04 01:26 51.11429 -114.02120 3556 ft 108 kts 357°
2026-05-04 01:26 51.11776 -114.02126 3555 ft 82 kts 360°
2026-05-04 01:26 51.11980 -114.02123 3558 ft 66 kts
2026-05-04 01:27 51.12064 -114.02118 3561 ft 61 kts
2026-05-04 01:27 51.12320 -114.02124 3557 ft 54 kts 355°
2026-05-04 01:27 51.12621 -114.02124 3554 ft 25 kts 10°
2026-05-04 01:28 51.12720 -114.02079 3554 ft 8 kts 20°
2026-05-04 01:28 51.12765 -114.02050 3557 ft 6 kts 25°
2026-05-04 01:28 51.12785 -114.02034 3557 ft 0 kts 25°
2026-05-04 01:28 51.12786 -114.02034 3557 ft 0 kts 25°
2026-05-04 01:29 51.12787 -114.02033 3557 ft 0 kts 25°